This is the latest recevied weather packets stored in our database for station/object DC1MAK-13. If no packets are shown the sender has not sent any weather packets the latest 10 day(s).
| Time | Temp. | Humidity | Pressure | Rain* | Wind** | Luminosity | Snow |
|---|---|---|---|---|---|---|---|
| 1787628573 | 13.89° C | 92% | 981 hPa | - | - | - | - |
| 1787627967 | 13.89° C | 91% | 981.1 hPa | - | - | - | - |
| 1787627667 | 13.89° C | 90% | 981 hPa | - | - | - | - |
| 1787627359 | 13.89° C | 90% | 981 hPa | - | - | - | - |
| 1787627056 | 13.89° C | 91% | 981 hPa | - | - | - | - |
| 1787626752 | 13.89° C | 91% | 981 hPa | - | - | - | - |
| 1787626147 | 13.33° C | 92% | 981.1 hPa | - | - | - | - |
| 1787625847 | 13.33° C | 93% | 981.1 hPa | - | - | - | - |
| 1787625538 | 13.33° C | 94% | 981.3 hPa | - | - | - | - |
| 1787625235 | 13.89° C | 94% | 981.3 hPa | - | - | - | - |
| 1787624931 | 13.89° C | 93% | 981.3 hPa | - | - | - | - |
| 1787624327 | 13.89° C | 92% | 981.5 hPa | - | - | - | - |
| 1787624027 | 13.89° C | 92% | 981.5 hPa | - | - | - | - |
| 1787623414 | 13.89° C | 92% | 981.3 hPa | - | - | - | - |
| 1787623111 | 13.89° C | 95% | 981.3 hPa | - | - | - | - |
| 1787622507 | 13.89° C | 94% | 981.3 hPa | - | - | - | - |
| 1787622200 | 13.89° C | 92% | 981.4 hPa | - | - | - | - |
| 1787621897 | 14.44° C | 93% | 981.4 hPa | - | - | - | - |
| 1787621593 | 14.44° C | 91% | 981.4 hPa | - | - | - | - |
| 1787620987 | 14.44° C | 88% | 981.5 hPa | - | - | - | - |
| 1787620687 | 14.44° C | 87% | 981.5 hPa | - | - | - | - |
| 1787620380 | 15° C | 89% | 981.6 hPa | - | - | - | - |
| 1787620076 | 15° C | 88% | 981.6 hPa | - | - | - | - |
| 1787619773 | 15° C | 84% | 981.6 hPa | - | - | - | - |
| 1787619167 | 16.11° C | 67% | 981.8 hPa | - | - | - | - |
* Rain since midnight (hover to see other rain measurements)
** Current wind speed in m/s (hover to see current wind gust speed)